Mountain Home Air Force Base, ID

3:44 AM MDT on September 29, 2016 (GMT -0600)
Mountain Home Air Force Base

Weather History for KMUO - December, 2013

Change the Weather History Date:

Tuesday, December 3, 2013

  Actual Average Record
Temperature  
Mean Temperature 26 °F 32 °F  
Max Temperature 33 °F 40 °F 60 °F (1918)
Min Temperature 18 °F 23 °F 0 °F (1906)
Degree Days  
Heating Degree Days 39 33  
Month to date heating degree days 83 98  
Cooling Degree Days 0 0  
Month to date cooling degree days 0 0  
Moisture  
Dew Point 19 °F    
Average Humidity 78    
Maximum Humidity 94    
Minimum Humidity 53    
Precipitation  
Precipitation T in 0.06 in 0.48 in (1950)
Month to date precipitation 0.01 0.18  
Snow  
Snow 0.00 in - - ()
Snow Depth 0.00 in    
Sea Level Pressure  
Sea Level Pressure 29.93 in    
Wind  
Wind Speed 10 mph (NNW)    
Max Wind Speed 21 mph    
Max Gust Speed 25 mph    
Visibility 10 miles    
Events Snow    
T = Trace of Precipitation, MM = Missing Value Source: NWS Daily Summary

Daily Weather History Graph

Daily Weather History Graph

Search for Another Location

Airport or City:

Trip Planner

Search our weather history database for the weather conditions in past years. The results will help you decide how hot, cold, wet, or windy it might be!

Date:

Astronomy

Dec. 03, 2013 Rise Set
Actual Time 7:57 AM MST 5:09 PM MST
Civil Twilight 7:25 AM MST 5:41 PM MST
Nautical Twilight 6:50 AM MST 6:16 PM MST
Astronomical Twilight 6:15 AM MST 6:50 PM MST
Moon 8:30 AM MST (12/3) 6:18 PM MST (12/3)
Length of Visible Light 10h 15m
Length of Day
9h 11m
New Moon, 1% of the Moon is Illuminated
Dec 3
New Moon
Dec 9
First Quarter
Dec 17
Full
Dec 25
Last Quarter
Jan 1
New

Hourly Weather History & Observations

Time (MST) Temp. Windchill Dew Point Humidity Pressure Visibility Wind Dir Wind Speed Gust Speed Precip Events Conditions
12:58 AM 24.8 °F 15.3 °F 23.4 °F 94% 29.88 in 10.0 mi WNW 9.2 mph - N/A   Clear
1:58 AM 27.3 °F 15.6 °F 20.1 °F 74% 29.86 in 10.0 mi NW 15.0 mph - N/A   Clear
2:58 AM 25.2 °F 13.9 °F 21.0 °F 84% 29.87 in 10.0 mi NW 12.7 mph - N/A   Clear
3:58 AM 23.4 °F 14.3 °F 19.8 °F 86% 29.88 in 10.0 mi WNW 8.1 mph - N/A   Clear
4:58 AM 22.1 °F 12.0 °F 18.5 °F 86% 29.91 in 10.0 mi North 9.2 mph - N/A   Clear
5:58 AM 19.9 °F 11.1 °F 16.3 °F 86% 29.92 in 10.0 mi NW 6.9 mph - N/A   Partly Cloudy
6:58 AM 18.1 °F - 15.6 °F 90% 29.94 in 10.0 mi Calm Calm - N/A   Partly Cloudy
7:58 AM 20.1 °F 10.3 °F 15.6 °F 83% 29.94 in 10.0 mi WNW 8.1 mph - N/A   Clear
8:58 AM 23.7 °F 14.0 °F 18.5 °F 80% 29.94 in 10.0 mi WNW 9.2 mph - N/A   Clear
9:58 AM 27.9 °F 16.3 °F 21.0 °F 75% 29.93 in 10.0 mi NW 15.0 mph - N/A   Clear
10:58 AM 30.6 °F 17.9 °F 20.1 °F 65% 29.93 in 10.0 mi NW 20.7 mph - N/A   Clear
11:58 AM 31.5 °F 19.1 °F 19.8 °F 62% 29.93 in 10.0 mi NW 20.7 mph - N/A   Clear
12:58 PM 32.0 °F 20.1 °F 18.1 °F 57% 29.90 in 10.0 mi NW 19.6 mph - N/A   Partly Cloudy
1:58 PM 33.1 °F 21.2 °F 17.6 °F 53% 29.89 in 10.0 mi NW 20.7 mph - N/A   Partly Cloudy
6:43 PM 26.6 °F 15.2 °F 21.2 °F 80% 29.87 in 10.0 mi ENE 13.8 mph 18.4 mph N/A   Mostly Cloudy
6:44 PM 26.6 °F 13.8 °F 21.2 °F 80% 29.87 in 10.0 mi NNE 17.3 mph 25.3 mph N/A   Mostly Cloudy
6:58 PM 27.0 °F 14.7 °F 20.1 °F 75% 29.98 in 10.0 mi NNW 16.1 mph 23.0 mph N/A   Overcast
7:02 PM 28.4 °F 16.6 °F 19.4 °F 69% 29.88 in 10.0 mi NE 16.1 mph 23.0 mph N/A   Overcast
7:07 PM 28.4 °F 20.4 °F 21.2 °F 74% 29.88 in 10.0 mi ENE 8.1 mph - N/A   Overcast
7:12 PM 26.6 °F 20.0 °F 23.0 °F 86% 29.89 in 9.0 mi ENE 5.8 mph - N/A Snow Light Snow
7:22 PM 26.6 °F 16.2 °F 23.0 °F 86% 29.89 in 5.0 mi ESE 11.5 mph - N/A Snow Light Snow
7:58 PM 25.5 °F - 23.5 °F 92% 30.00 in 10.0 mi SSW 2.3 mph - 0.00 in Snow Light Snow
8:09 PM 24.8 °F - 23.0 °F 93% 29.90 in 10.0 mi SW 2.3 mph - N/A Snow Light Snow
8:58 PM 25.3 °F 19.7 °F 22.1 °F 87% 30.00 in 10.0 mi West 4.6 mph - 0.00 in   Overcast
9:58 PM 24.1 °F - 19.6 °F 83% 30.01 in 10.0 mi North 2.3 mph - N/A   Overcast
10:33 PM 23.0 °F - 19.4 °F 86% 29.94 in 10.0 mi WSW 2.3 mph - N/A   Overcast
10:58 PM 23.5 °F - 18.3 °F 80% 30.03 in 10.0 mi SE 2.3 mph - N/A   Overcast
11:03 PM 23.0 °F 13.9 °F 15.8 °F 74% 29.95 in 10.0 mi ESE 8.1 mph - N/A   Overcast
11:28 PM 21.2 °F 11.7 °F 8.6 °F 58% 29.95 in 10.0 mi ESE 8.1 mph - N/A   Scattered Clouds
11:58 PM 19.0 °F 10.0 °F 6.3 °F 58% 30.06 in 10.0 mi ESE 6.9 mph - N/A   Scattered Clouds